Hilo, HI

1:17 AM HST on December 10, 2016 (GMT -1000)
Hilo International

Weather History for PHTO - October, 2014

Change the Weather History Date:

Thursday, October 2, 2014

  Actual Average Record
Temperature  
Mean Temperature 79 °F 76 °F  
Max Temperature 87 °F 83 °F 91 °F (1976)
Min Temperature 71 °F 69 °F 64 °F (1969)
Degree Days  
Heating Degree Days 0 0  
Month to date heating degree days 0 0  
Since 1 July heating degree days 0 0  
Cooling Degree Days 14 11  
Month to date cooling degree days 28 22  
Year to date cooling degree days 2749 2430  
Growing Degree Days 28 (Base 50)    
Moisture  
Dew Point 70 °F    
Average Humidity 76    
Maximum Humidity 93    
Minimum Humidity 59    
Precipitation  
Precipitation 0.51 in 0.30 in 1.79 in (1987)
Month to date precipitation 0.51 0.60  
Year to date precipitation 85.66 90.48  
Snow  
Snow 0.00 in - - ()
Month to date snowfall 0.0  
Since 1 July snowfall 0.0  
Since 1 September snowfall 0.0  
Snow Depth 0.00 in    
Sea Level Pressure  
Sea Level Pressure 29.95 in    
Wind  
Wind Speed 6 mph (WSW)    
Max Wind Speed 13 mph    
Max Gust Speed 18 mph    
Visibility 9 miles    
Events Rain    
T = Trace of Precipitation, MM = Missing Value Source: NWS Daily Summary

Daily Weather History Graph

Daily Weather History Graph

Search for Another Location

Airport or City:

Trip Planner

Search our weather history database for the weather conditions in past years. The results will help you decide how hot, cold, wet, or windy it might be!

Date:

Astronomy

Oct. 02, 2014 Rise Set
Actual Time 6:11 AM HST 6:07 PM HST
Civil Twilight 5:49 AM HST 6:29 PM HST
Nautical Twilight 5:23 AM HST 6:54 PM HST
Astronomical Twilight 4:58 AM HST 7:20 PM HST
Moon 1:42 PM HST (10/2) 12:22 AM HST (10/2)
Length of Visible Light 12h 39m
Length of Day
11h 55m
Waxing Gibbous, 62% of the Moon is Illuminated
Oct 2
Waxing Gibbous
Oct 8
Full
Oct 15
Last Quarter
Oct 23
New
Oct 30
First Quarter

Hourly Weather History & Observations

Time (HST) Temp. Heat Index Dew Point Humidity Pressure Visibility Wind Dir Wind Speed Gust Speed Precip Events Conditions
12:50 AM 73.4 °F - 69.8 °F 88% 29.96 in 9.0 mi Calm Calm - 0.00 in Rain Light Rain
12:53 AM 73.9 °F - 69.1 °F 85% 29.96 in 10.0 mi East 3.5 mph - 0.00 in Rain Light Rain
1:53 AM 71.1 °F - 69.1 °F 93% 29.93 in 10.0 mi WSW 8.1 mph - 0.07 in Rain Light Rain
2:19 AM 72.0 °F - 70.0 °F 93% 29.92 in 10.0 mi WSW 5.8 mph - 0.00 in   Mostly Cloudy
2:53 AM 73.0 °F - 70.0 °F 90% 29.92 in 10.0 mi WSW 4.6 mph - 0.00 in   Mostly Cloudy
3:53 AM 72.0 °F - 66.9 °F 84% 29.90 in 10.0 mi SW 6.9 mph - N/A   Mostly Cloudy
4:53 AM 73.0 °F - 66.9 °F 81% 29.92 in 10.0 mi ESE 6.9 mph - N/A   Mostly Cloudy
5:53 AM 73.0 °F - 69.1 °F 87% 29.95 in 8.0 mi Calm Calm - 0.00 in Rain Light Rain
6:53 AM 73.0 °F - 70.0 °F 90% 29.96 in 10.0 mi WSW 6.9 mph - 0.02 in Rain Light Rain
7:53 AM 75.0 °F - 70.0 °F 84% 29.97 in 10.0 mi SW 5.8 mph - 0.00 in   Mostly Cloudy
8:53 AM 75.9 °F - 71.1 °F 85% 29.99 in 10.0 mi West 11.5 mph - 0.00 in   Overcast
9:53 AM 79.0 °F - 72.0 °F 79% 29.98 in 10.0 mi West 10.4 mph - N/A   Overcast
10:53 AM 84.0 °F 87.8 °F 69.1 °F 61% 29.96 in 10.0 mi South 4.6 mph - N/A   Mostly Cloudy
11:53 AM 84.9 °F 88.2 °F 68.0 °F 57% 29.93 in 10.0 mi Calm Calm - N/A   Mostly Cloudy
12:53 PM 84.9 °F 88.8 °F 69.1 °F 59% 29.90 in 10.0 mi NE 10.4 mph - N/A   Mostly Cloudy
1:53 PM 84.9 °F 89.4 °F 70.0 °F 61% 29.89 in 10.0 mi NE 8.1 mph - N/A   Clear
2:53 PM 84.9 °F 89.4 °F 70.0 °F 61% 29.88 in 10.0 mi ENE 9.2 mph - N/A   Clear
3:53 PM 82.9 °F 87.5 °F 71.1 °F 67% 29.88 in 10.0 mi NNE 6.9 mph - N/A   Mostly Cloudy
4:53 PM 82.0 °F 86.3 °F 71.1 °F 69% 29.91 in 10.0 mi NNE 4.6 mph - N/A   Partly Cloudy
5:53 PM 81.0 °F 85.2 °F 72.0 °F 74% 29.92 in 10.0 mi Calm Calm - N/A   Clear
6:18 PM 79.0 °F - 71.1 °F 77% 29.94 in 10.0 mi NNE 8.1 mph - N/A   Mostly Cloudy
6:39 PM 75.9 °F - 71.1 °F 85% 29.94 in 8.0 mi NW 8.1 mph - 0.00 in Rain Light Rain
6:53 PM 77.0 °F - 73.0 °F 88% 29.95 in 10.0 mi WNW 10.4 mph - 0.01 in   Overcast
7:53 PM 75.9 °F - 71.1 °F 85% 29.97 in 10.0 mi Calm Calm - 0.00 in Rain Light Rain
8:30 PM 75.0 °F - 71.1 °F 87% 29.99 in 6.0 mi SE 3.5 mph - 0.01 in Rain Heavy Rain
8:46 PM 73.9 °F - 71.1 °F 91% 29.99 in 6.0 mi SW 6.9 mph - 0.09 in Rain Light Rain
8:53 PM 73.0 °F - 70.0 °F 90% 29.99 in 7.0 mi SSW 3.5 mph - 0.10 in Rain Light Rain
9:01 PM 73.0 °F - 70.0 °F 90% 29.99 in 5.0 mi Calm Calm - 0.02 in Rain Rain
9:40 PM 73.0 °F - 71.1 °F 93% 30.00 in 6.0 mi SW 6.9 mph - 0.20 in Rain Light Rain
9:53 PM 73.0 °F - 71.1 °F 93% 30.00 in 3.0 mi WSW 8.1 mph - 0.22 in Rain Heavy Rain
10:53 PM 73.0 °F - 71.1 °F 93% 29.99 in 10.0 mi West 11.5 mph - 0.09 in Rain Light Rain
11:53 PM 73.0 °F - 69.1 °F 87% 29.97 in 10.0 mi West 9.2 mph - 0.00 in   Overcast